Weather History for KPWM - November, 2013

Change the Weather History Date:

Wednesday, November 20, 2013

  Actual Average Record
Temperature  
Mean Temperature 32 °F 38 °F  
Max Temperature 41 °F 46 °F 71 °F (1941)
Min Temperature 22 °F 30 °F 10 °F (1980)
Degree Days  
Heating Degree Days 33 27  
Month to date heating degree days 471 479  
Since 1 July heating degree days 1103 1203  
Cooling Degree Days 0 0  
Month to date cooling degree days 0 0  
Year to date cooling degree days 454 359  
Moisture  
Dew Point 11 °F    
Average Humidity 40    
Maximum Humidity 55    
Minimum Humidity 25    
Precipitation  
Precipitation 0.00 in 0.17 in 2.53 in (1972)
Month to date precipitation 0.79 3.37  
Year to date precipitation 36.81 41.67  
Snow  
Snow 0.00 in 0.00 in 6.50 in (1914)
Month to date snowfall 0.0 0.7  
Since 1 July snowfall 0.0 0.7  
Since 1 September snowfall 0.0 0.7  
Snow Depth 0.00 in    
Sea Level Pressure  
Sea Level Pressure 30.48 in    
Wind  
Wind Speed 9 mph (NW)    
Max Wind Speed 26 mph    
Max Gust Speed 38 mph    
Visibility 10 miles    
Events      
T = Trace of Precipitation, MM = Missing Value Source: NWS Daily Summary

Daily Weather History Graph

Daily Weather History Graph

Search for Another Location

Airport or City:

Trip Planner

Search our weather history database for the weather conditions in past years. The results will help you decide how hot, cold, wet, or windy it might be!

Date:

Astronomy

Nov. 20, 2013 Rise Set
Actual Time 6:41 AM EST 4:11 PM EST
Civil Twilight 6:10 AM EST 4:42 PM EST
Nautical Twilight 5:35 AM EST 5:17 PM EST
Astronomical Twilight 5:01 AM EST 5:52 PM EST
Moon 6:51 PM EST (11/20) 9:04 AM EST (11/20)
Length of Visible Light 10h 32m
Length of Day
9h 29m
Waning Gibbous, 91% of the Moon is Illuminated
Nov 20
Waning Gibbous
Nov 25
Last Quarter
Dec 2
New
Dec 9
First Quarter
Dec 17
Full

Hourly Weather History & Observations

Time (EST) Temp. Windchill Dew Point Humidity Pressure Visibility Wind Dir Wind Speed Gust Speed Precip Events Conditions
12:51 AM 32.0 °F 19.5 °F 12.0 °F 44% 30.25 in 10.0 mi NW 21.9 mph 29.9 mph N/A   Clear
1:51 AM 30.0 °F 25.2 °F 12.9 °F 49% 30.29 in 10.0 mi Variable 4.6 mph 16.1 mph N/A   Clear
2:51 AM 30.9 °F 20.2 °F 12.9 °F 47% 30.32 in 10.0 mi NNW 15.0 mph 24.2 mph N/A   Clear
3:51 AM 30.9 °F 22.2 °F 12.0 °F 46% 30.34 in 10.0 mi NW 10.4 mph 20.7 mph N/A   Clear
4:51 AM 30.0 °F 21.1 °F 12.0 °F 47% 30.37 in 10.0 mi NW 10.4 mph 21.9 mph N/A   Clear
5:36 AM 28.9 °F 19.8 °F 12.9 °F 51% 30.39 in 10.0 mi WNW 10.4 mph - N/A   Clear
5:51 AM 28.9 °F 19.8 °F 12.9 °F 51% 30.41 in 10.0 mi WNW 10.4 mph - N/A   Clear
6:51 AM 27.0 °F 18.7 °F 12.0 °F 53% 30.45 in 10.0 mi WNW 8.1 mph - N/A   Clear
7:51 AM 30.9 °F 22.2 °F 12.9 °F 47% 30.47 in 10.0 mi NW 10.4 mph - N/A   Clear
8:51 AM 33.1 °F 23.9 °F 10.9 °F 40% 30.48 in 10.0 mi NNW 12.7 mph - N/A   Clear
9:51 AM 34.0 °F 23.4 °F 10.0 °F 37% 30.50 in 10.0 mi NNW 17.3 mph - N/A   Clear
10:51 AM 37.0 °F 27.7 °F 10.0 °F 33% 30.51 in 10.0 mi NNW 16.1 mph 26.5 mph N/A   Clear
11:51 AM 39.0 °F 31.4 °F 10.9 °F 32% 30.51 in 10.0 mi NW 12.7 mph 19.6 mph N/A   Clear
12:51 PM 39.9 °F 32.1 °F 9.0 °F 28% 30.51 in 10.0 mi NNW 13.8 mph 21.9 mph N/A   Clear
1:51 PM 39.9 °F 33.4 °F 9.0 °F 28% 30.51 in 10.0 mi NW 10.4 mph - N/A   Clear
2:51 PM 39.9 °F 33.9 °F 7.0 °F 26% 30.52 in 10.0 mi NNW 9.2 mph - N/A   Clear
3:51 PM 37.9 °F 30.5 °F 7.0 °F 28% 30.53 in 10.0 mi NNW 11.5 mph - N/A   Clear
4:51 PM 36.0 °F 32.1 °F 7.0 °F 30% 30.55 in 10.0 mi North 4.6 mph - N/A   Clear
5:51 PM 30.0 °F 25.2 °F 10.0 °F 43% 30.56 in 10.0 mi WNW 4.6 mph - N/A   Clear
6:51 PM 27.0 °F 23.0 °F 12.0 °F 53% 30.58 in 10.0 mi WSW 3.5 mph - N/A   Clear
7:51 PM 27.0 °F - 12.9 °F 56% 30.60 in 10.0 mi Calm Calm - N/A   Clear
8:51 PM 26.1 °F 20.5 °F 12.9 °F 58% 30.62 in 10.0 mi WNW 4.6 mph - N/A   Clear
9:51 PM 27.0 °F - 12.0 °F 53% 30.62 in 10.0 mi Calm Calm - N/A   Clear
10:51 PM 26.1 °F - 12.9 °F 58% 30.63 in 10.0 mi Calm Calm - N/A   Clear
11:51 PM 23.0 °F 17.0 °F 14.0 °F 68% 30.63 in 10.0 mi WNW 4.6 mph - N/A   Clear